| time (UTC) | temp C | wind direction | speed KPH | gust KPH | rain 1hr cm | rain 24hr cm | rain mn cm | humidity % | barometer mb |
| 20260504080908 | 21 | 50 | 4.8 | 8.0 | 0.00 | 0.00 | 0.00 | 84 | 1011.0 |
| 20260504050440 | 22 | 91 | 8.0 | 12.9 | 0.00 | 0.00 | 0.00 | 83 | 1013.0 |
| 20260504044940 | 22 | 91 | 8.0 | 12.9 | 0.00 | 0.00 | 0.00 | 83 | 1013.0 |
| 20260504043439 | 22 | 91 | 8.0 | 12.9 | 0.00 | 0.00 | 0.00 | 82 | 1013.0 |
| 20260504041939 | 22 | 82 | 8.0 | 12.9 | 0.00 | 0.00 | 0.00 | 81 | 1013.0 |
| 20260504040439 | 22 | 82 | 8.0 | 12.9 | 0.00 | 0.00 | 0.00 | 81 | 1013.0 |
| 20260504034938 | 22 | 82 | 8.0 | 12.9 | 0.00 | 0.00 | 0.00 | 81 | 1013.0 |
| 20260504033438 | 22 | 82 | 8.0 | 12.9 | 0.00 | 0.00 | 0.00 | 81 | 1013.0 |
| 20260504031937 | 22 | 79 | 9.7 | 17.7 | 0.00 | 0.00 | 0.00 | 80 | 1013.0 |
| 20260504030437 | 22 | 79 | 9.7 | 17.7 | 0.00 | 0.00 | 0.00 | 80 | 1013.0 |
| 20260504023226 | 22 | 79 | 9.7 | 17.7 | 0.00 | 0.00 | 0.00 | 80 | 1013.0 |
| 20260504021726 | 23 | 79 | 9.7 | 24.1 | 0.00 | 0.00 | 0.00 | 79 | 1012.0 |
| 20260504012806 | 23 | 70 | 12.9 | 0.0 | 0.00 | 0.00 | 0.00 | 79 | 1012.0 |
| 20260504011305 | 23 | 70 | 12.9 | 0.0 | 0.00 | 0.00 | 0.00 | 79 | 1012.0 |
| 20260504005805 | 24 | 70 | 12.9 | 0.0 | 0.00 | 0.00 | 0.00 | 79 | 1012.0 |
| 20260504004305 | 25 | 70 | 12.9 | 0.0 | 0.00 | 0.00 | 0.00 | 79 | 1011.0 |
| 20260504002804 | 25 | 70 | 12.9 | 0.0 | 0.00 | 0.00 | 0.00 | 79 | 1010.0 |
| 20260504001304 | 26 | 70 | 12.9 | 0.0 | 0.00 | 0.00 | 0.00 | 79 | 1010.0 |
| 20260503234053 | 26 | 70 | 14.5 | 0.0 | 0.00 | 0.00 | 0.00 | 79 | 1010.0 |
| 20260503232552 | 27 | 70 | 14.5 | 0.0 | 0.00 | 0.00 | 0.00 | 79 | 1009.0 |
| 20260503231052 | 27 | 70 | 14.5 | 0.0 | 0.00 | 0.00 | 0.00 | 79 | 1010.0 |
| 20260503225550 | 28 | 80 | 14.5 | 0.0 | 0.00 | 0.00 | 0.00 | 79 | 1010.0 |
| 20260503224049 | 28 | 80 | 14.5 | 0.0 | 0.00 | 0.00 | 0.00 | 79 | 1010.0 |
| 20260503222549 | 29 | 80 | 14.5 | 0.0 | 0.00 | 0.00 | 0.00 | 79 | 1010.0 |
| 20260503221048 | 26 | 80 | 14.5 | 0.0 | 0.00 | 0.00 | 0.00 | 64 | 1010.0 |
| 20260503215548 | 26 | 75 | 12.9 | 12.9 | 0.00 | 0.00 | 0.00 | 64 | 1010.0 |
| 20260503214047 | 27 | 75 | 12.9 | 12.9 | 0.00 | 0.00 | 0.00 | 64 | 1010.0 |
| 20260503210836 | 27 | 75 | 12.9 | 14.5 | 0.00 | 0.00 | 0.00 | 64 | 1010.0 |
| 20260503205335 | 27 | 80 | 14.5 | 0.0 | 0.00 | 0.00 | 0.00 | 63 | 1010.0 |
| 20260503203835 | 27 | 80 | 14.5 | 0.0 | 0.00 | 0.00 | 0.00 | 63 | 1010.0 |
| 20260503200623 | 28 | 85 | 11.3 | 12.9 | 0.00 | 0.00 | 0.00 | 63 | 1011.0 |
| 20260503195123 | 28 | 85 | 11.3 | 12.9 | 0.00 | 0.00 | 0.00 | 63 | 1011.0 |
| 20260503193623 | 29 | 85 | 11.3 | 12.9 | 0.00 | 0.00 | 0.00 | 63 | 1011.0 |
| 20260503192122 | 27 | 90 | 8.0 | 0.0 | 0.00 | 0.00 | 0.00 | 70 | 1012.0 |
| 20260503190621 | 27 | 90 | 9.7 | 0.0 | 0.00 | 0.00 | 0.00 | 70 | 1012.0 |
| 20260503185120 | 28 | 90 | 9.7 | 0.0 | 0.00 | 0.00 | 0.00 | 70 | 1012.0 |
| 20260503183620 | 28 | 90 | 9.7 | 0.0 | 0.00 | 0.00 | 0.00 | 70 | 1012.0 |
| 20260503182119 | 29 | 90 | 9.7 | 0.0 | 0.00 | 0.00 | 0.00 | 70 | 1012.0 |
| 20260503180619 | 30 | 90 | 9.7 | 0.0 | 0.00 | 0.00 | 0.00 | 70 | 1012.0 |
| 20260503175118 | 30 | 90 | 9.7 | 0.0 | 0.00 | 0.00 | 0.00 | 70 | 1012.0 |
| 20260503173617 | 26 | 90 | 12.9 | 0.0 | 0.00 | 0.00 | 0.00 | 74 | 1013.0 |
| 20260503172117 | 26 | 90 | 12.9 | 0.0 | 0.00 | 0.00 | 0.00 | 74 | 1013.0 |
| 20260503170617 | 27 | 90 | 14.5 | 0.0 | 0.00 | 0.00 | 0.00 | 74 | 1013.0 |